Location: Kerforn
(47.7529°N, 3.3882°W)
Time: 11:59:08
(UTC+00:00)

Daily predictions for brighter satellites

Satellite Brightness Start Highest point End
(mag) Time Altitude Azimuth Time Altitude Azimuth Time Altitude Azimuth
NOSS 2-1 (E) 4.4 20:42:37 10° NW 20:47:14 68° SW 20:53:49 10° SSE
SPOT 5 3.6 20:50:29 10° SE 20:54:24 34° ENE 20:58:18 10° N
Cosmos 2084 Rocket 4.5 20:51:57 10° NNW 20:55:29 33° NE 20:59:08 10° ESE
Cosmos 1703 4.0 20:52:34 10° SSE 20:56:01 33° E 20:59:31 10° NNE
RESURS DK-1 2.5 20:52:48 10° NNW 20:56:56 65° ENE 21:01:02 10° SE
Cosmos 1452 Rocket 3.6 20:53:23 10° S 20:58:31 57° ESE 21:03:40 10° NNE
Cosmos 1833 Rocket 3.2 20:53:32 10° S 20:58:41 39° ESE 21:03:53 10° NE
Cosmos 724 4.4 20:53:01 10° SW 20:58:50 83° NW 21:04:40 10° NE
Terra 3.0 20:57:02 10° SE 21:01:09 30° ENE 21:05:18 10° N
CZ-4B R/B 1.0 20:59:22 10° NNE 21:02:15 89° E 21:05:08 10° SSW
Cosmos 1110 Rocket 4.5 20:59:40 10° S 21:04:34 41° ESE 21:09:32 10° NE
Helios 1A Rocket 3.7 21:01:23 10° SE 21:05:09 37° ENE 21:08:58 10° N
ERS-1 Rocket 3.6 21:02:53 10° SE 21:07:38 44° ENE 21:12:24 10° N
Resurs 01 Rocket 2.5 21:03:44 10° S 21:08:02 49° W 21:12:23 10° NNW
Cosmos 2228 3.4 21:07:08 10° N 21:11:14 46° ENE 21:15:15 10° SSE
Cosmos 2184 Rocket 4.0 21:09:03 10° N 21:15:14 71° E 21:21:27 10° SSE
Lacrosse 5 3.4 21:12:48 10° WNW 21:17:01 26° SW 21:21:12 10° S
IRAS Rocket 4.2 21:13:57 10° NNE 21:19:35 81° ESE 21:25:08 10° SSW
Cosmos 968 Rocket 4.4 21:17:15 10° N 21:22:03 36° ENE 21:26:36 11° ESE
Cosmos 1271 Rocket 4.1 21:19:54 10° NNW 21:23:36 38° W 21:27:14 10° SSW
USA 276 2.8 21:23:13 10° W 21:26:12 53° N 21:29:11 10° ENE
Cosmos 2360 4.3 21:24:59 10° NNW 21:30:46 82° ENE 21:35:50 14° SSE
H-2A R/B 3.8 21:27:16 10° N 21:31:20 36° WNW 21:35:26 10° SW
Cosmos 1867 4.3 21:26:10 10° NNW 21:31:28 46° NE 21:36:30 11° ESE
Cosmos 2082 Rocket 3.0 21:27:37 10° SSE 21:32:35 32° ESE 21:37:33 10° NE
Cosmos 1455 3.8 21:29:10 10° NNW 21:32:35 32° W 21:36:00 10° SSW
USA 245 3.5 21:30:20 10° S 21:34:27 61° WSW 21:37:45 10° NNW
Cosmos 1536 Rocket 3.8 21:30:43 10° SSW 21:35:01 70° W 21:39:24 10° N
USA 267 4.2 21:33:03 10° ENE 21:38:10 24° SE 21:43:16 10° S
CARTOSAT-1 4.4 21:34:34 10° S 21:38:43 47° W 21:42:54 10° NNW
ARIANE 5 R/B 3.1 21:35:43 15° SE 21:39:12 47° ENE 21:43:27 10° N
Cosmos 1606 Rocket 3.7 21:35:42 10° N 21:39:59 61° ENE 21:43:24 16° SSE
Meteor 1-21 Rocket 4.2 21:37:50 10° S 21:43:23 73° E 21:49:06 10° NNE
SPOT 3 Rocket 4.4 21:46:42 10° S 21:51:42 48° W 21:56:46 10° NNW
Cosmos 1726 Rocket 3.5 21:58:23 10° N 22:02:43 81° E 22:05:41 20° SSE
Cosmos 1892 3.5 22:02:06 22° SE 22:03:48 34° E 22:07:15 10° NNE
Nadezhda 1 Rocket 4.1 22:04:03 10° SSW 22:10:07 76° W 22:16:14 10° N
Meteor 2-1 Rocket 4.5 22:07:45 10° NNW 22:13:12 65° W 22:17:41 16° S
USA 234 4.0 22:07:29 10° E 22:13:47 51° NNE 22:20:05 10° NW
SL-16 R/B 3.5 22:11:45 10° NNW 22:16:51 33° NE 22:21:23 12° ESE
Cosmos 1980 Rocket 2.2 22:11:21 10° NNW 22:17:06 85° WSW 22:20:52 22° SSE
Cosmos 1697 Rocket 3.4 22:11:50 10° NW 22:17:10 45° WSW 22:21:16 16° S
X-37B 1.8 22:16:08 10° WSW 22:18:13 23° SSW 22:18:13 23° SSW
Cosmos 2369 3.8 22:14:58 10° NNW 22:20:42 73° WSW 22:24:30 22° SSE
CZ-2C R/B 4.2 22:21:07 10° N 22:25:36 58° WNW 22:30:00 10° SSW
COSMOS 2406 3.4 22:20:48 10° SSW 22:26:34 78° WNW 22:32:22 10° NNE
ATLAS 5 CENTAUR R/B 1.8 22:29:23 31° SSE 22:30:18 37° ESE 22:34:05 10° NE
SPOT 5 4.3 22:28:58 11° SSW 22:32:33 26° W 22:36:13 10° NW
Cosmos 1869 3.7 22:29:48 10° N 22:33:34 47° ENE 22:35:09 29° SE
In-Cosmos 22 Rocket 4.3 22:30:22 23° SSE 22:33:47 60° E 22:39:08 10° NNE
Cosmos 2084 Rocket 4.2 22:31:18 10° WNW 22:34:54 35° WSW 22:36:30 25° SSW
Terra 3.0 22:35:21 15° SSW 22:38:49 36° W 22:43:13 10° NNW
Meteor 1-27 4.2 22:33:50 10° N 22:39:24 71° ENE 22:42:35 26° SSE
FALCON 9 DEB 3.1 22:37:38 10° WNW 22:40:53 75° NNE 22:42:17 31° ESE
ALOS 2 4.1 22:39:48 17° ESE 22:42:06 27° ENE 22:45:46 10° N
Cosmos 1833 Rocket 4.1 22:37:25 10° WSW 22:42:38 39° NW 22:47:54 10° NNE
ASTEX 1 3.4 22:37:42 10° N 22:42:45 90° W 22:45:49 24° S
Cosmos 1892 Rocket 4.1 22:41:21 16° SSW 22:44:45 54° WNW 22:49:03 10° N
BREEZE-M DEB (TANK) 3.4 22:44:12 10° W 22:47:00 75° N 22:56:19 10° E
SL-8 Rocket 4.0 22:42:51 10° N 22:49:07 81° W 22:53:01 24° S
Cosmos 1302 Rocket 4.5 22:44:34 10° SW 22:49:42 60° WNW 22:54:51 10° NNE
Cosmos 2058 Rocket 3.5 22:45:54 10° NNW 22:50:14 56° W 22:52:35 26° SSW
Cosmos 1825 2.1 22:49:40 39° SSE 22:50:55 68° E 22:54:39 10° NNE
ADEOS Rocket 4.1 22:45:43 18° SE 22:50:56 48° ENE 22:58:17 10° N
Cosmos 1408 3.2 22:50:12 23° SW 22:52:01 47° WNW 22:55:23 10° N
Cosmos 2322 Rocket 3.1 22:47:05 10° NNW 22:52:29 42° NE 22:56:24 18° ESE
Cosmos 1503 Rocket 4.3 22:50:32 10° NNW 22:55:47 58° ENE 22:58:35 26° SE
Cosmos 1626 Rocket 3.5 22:54:43 34° S 22:56:30 70° E 23:00:51 10° NNE
USA 276 1.9 22:59:06 10° WNW 23:02:08 81° NNE 23:02:50 49° E
Cosmos 2278 3.9 22:57:43 10° NNW 23:03:23 64° WSW 23:06:17 29° S
Cosmos 2333 Rocket 4.0 23:02:37 10° N 23:07:25 26° NE 23:12:13 10° ESE
Cosmos 2366 rocket 4.2 23:01:54 10° NNW 23:08:13 70° W 23:12:00 26° S
Gbstr 26 Del rocket 4.5 23:11:09 22° ESE 23:11:09 22° ESE 23:13:59 10° E
SJ 16-02 2.0 23:06:06 10° N 23:10:24 47° ENE 23:12:19 28° ESE
Cosmos 2218 Rocket 4.3 23:05:26 10° NNW 23:11:48 66° W 23:15:36 25° S
Cosmos 1867 4.4 23:10:01 10° NW 23:14:58 36° WSW 23:17:08 26° SSW
Cosmos 2082 Rocket 3.1 23:10:57 10° SW 23:16:28 48° NW 23:21:59 10° NNE
GP-B 4.2 23:14:21 10° NNW 23:18:29 39° W 23:21:00 20° SW
H-2A R/B 3.9 23:15:50 10° NNE 23:19:55 47° E 23:20:55 39° SE
USA 267 3.2 23:15:18 10° NE 23:21:53 77° SE 23:28:26 10° SW
Cosmos 2221 4.3 23:22:53 10° NNE 23:26:20 22° ENE 23:28:17 17° ESE
Cosmos 2058 3.7 23:26:08 33° ESE 23:27:04 38° E 23:30:57 10° NNE
Cosmos 1606 3.0 23:23:31 10° N 23:27:20 57° ENE 23:28:16 43° SE
Cosmos 2360 Rocket 2.8 23:22:54 10° NNW 23:28:27 50° NE 23:32:00 21° ESE
Spot 4 3.9 23:27:39 37° S 23:29:32 72° WSW 23:34:21 10° NNW
Cosmos 44 4.2 23:41:21 28° ESE 23:41:31 28° ESE 23:45:21 10° ENE
Cosmos 2237 4.2 23:38:27 10° NNW 23:44:13 89° WSW 23:46:53 34° SSE
Meteor 2-20 Rocket 4.4 23:42:26 33° S 23:45:22 75° E 23:51:28 10° NNE
Cosmos 1633 3.1 23:45:56 39° WSW 23:46:43 47° WNW 23:50:05 10° N
Cosmos 1758 Rocket 3.7 23:45:44 39° SSW 23:47:17 70° WNW 23:51:41 10° N
COSMOS 2428 4.4 23:49:19 10° NNW 23:54:17 29° NE 23:59:12 10° ESE
